Location: Unspecified
(0.0000°N, 0.0000°E)
Time: 23:36:13
(UTC+00:00)

Vanguard 1 - Pass Details

Date: 05 October 2020
Orbit: 649 x 3833 km, 34.3° (Epoch: 28 October)

Event Time Altitude Azimuth Distance (km) Brightness Sun altitude
Rises 17:49:01 0° 257° (WSW) 7,505 17.2 -0.2°
Reaches altitude 10° 17:55:47 10° 266° (W) 6,033 16.3 -1.9°
Maximum altitude 18:09:15 28° 318° (NW) 3,516 13.4 -5.2°
Drops below altitude 10° 18:17:51 10° 14° (NNE) 3,757 12.9 -7.4°
Sets 18:20:57 0° 27° (NNE) 4,356 13.1 -8.2°
